Regional Weather Roundup
Issued by NWS

Home | Current Version | Previous Version | Graphics & Text | Print | Product List | Glossary On
Versions: 1 2 3 4 5 6 7 8 9 10 11 12 13 14 15 16 17 18 19 20 21 22 23 24 25 26 27 28 29 30 31 32 33 34 35 36 37 38 39 40 41 42 43 44 45 46 47 48 49 50
000
ASUS43 KDMX 232001
RWRIA

WEATHER ROUNDUP FOR IOWA
NATIONAL WEATHER SERVICE DES MOINES IA
200 PM CST THU NOV 23 2017

NOTE: "FAIR" INDICATES FEW OR NO CLOUDS BELOW 12,000 FEET WITH NO
SIGNIFICANT WEATHER AND/OR OBSTRUCTIONS TO VISIBILITY.

* - THESE STATIONS ARE NOT NWS STATIONS...THUS NOT UNDER NWS
QUALITY CONTROL.  THEY ALSO DO NOT REPORT WEATHER SUCH
AS PRECIPITATION OR FOG.

IAZ001>003-012>014-020>022-031>034-043>046-232100-
   NORTHWEST IOWA

CITY           SKY/WX    TMP DP  RH WIND       PRES   REMARKS
CARROLL *      SUNNY     57  34  41 W6        29.90F
CHEROKEE *     SUNNY     56  33  40 SW8       29.87F
DENISON *      CLOUDY    59  34  38 SW9       29.91F
LE MARS *      SUNNY     59  36  41 S10       29.86F
ORANGE CITY *  SUNNY     55  37  50 S8        29.86F
SHELDON *      SUNNY     54  32  43 S8        29.84F
SIOUX CITY     SUNNY     58  36  43 S9        29.88F
SPENCER        CLOUDY    55  31  39 SW9       29.86F
STORM LAKE *   SUNNY     54  32  43 SW10      29.87F
$$

IAZ055>058-069>071-079>083-090>094-232100-
   SOUTHWEST IOWA

CITY           SKY/WX    TMP DP  RH WIND       PRES   REMARKS
ATLANTIC *     SUNNY     57  36  44 CALM      29.92F
AUDUBON *      SUNNY     61  34  36 W5        29.92F
CLARINDA *     SUNNY     61  36  39 CALM        N/A
COUNCIL BLFS * SUNNY     59  37  44 SW6       29.92F
CRESTON *      SUNNY     57  34  41 CALM      29.95F
HARLAN  *      CLOUDY    59  36  41 SW6       29.95F
LAMONI         SUNNY     59  35  40 NW5       29.94F
RED OAK *      SUNNY     61  36  39 SW6       29.93F
SHENANDOAH *   SUNNY     61  36  39 SW5       29.95F
$$

IAZ047>049-059>061-072>074-084-232100-
   CENTRAL IOWA

CITY           SKY/WX    TMP DP  RH WIND       PRES   REMARKS
AMES           SUNNY     52  31  44 W5        29.92F
ANKENY *       SUNNY     52  30  43 CALM      29.94F
BOONE *        SUNNY     52  30  43 W7        29.91F
CHARITON *     SUNNY     54  32  43 NW8       29.94S
DES MOINES     PTSUNNY   53  30  41 W7        29.94F
GRINNELL*      SUNNY     51  29  43 W3        29.93F
KNOXVILLE *    SUNNY     52  28  40 NW6G13    29.92F
MARSHALLTOWN   SUNNY     51  30  44 W8        29.91F
NEWTON *       SUNNY     52  30  43 NW8       29.93F
PELLA *        SUNNY     51  28  41 W7        29.94F
PERRY *          N/A     53  29  39 W5        29.92F
$$

IAZ004>006-015-016-023>025-035-036-232100-
   NORTH CENTRAL IOWA

CITY           SKY/WX    TMP DP  RH WIND       PRES   REMARKS
ALGONA *       CLOUDY    50  32  50 S8        29.88F
CLARION *      SUNNY     48  30  49 W7        29.90F
ESTHERVILLE    CLOUDY    49  31  49 S13       29.86F
FORT DODGE *   CLOUDY    51  31  46 SW6       29.90F
MASON CITY     SUNNY     47  26  44 W8        29.91F
FOREST CITY *    N/A     48  28  46 SW7       29.90F
WEBSTER CITY * SUNNY     52  30  43 SW6       29.89F
IOWA FALLS *     N/A     51  31  46 W8        29.92F
$$

IAZ007>011-017>019-026>030-037>042-050>054-066-232100-
   NORTHEAST IOWA

CITY           SKY/WX    TMP DP  RH WIND       PRES   REMARKS
CEDAR RAPIDS   SUNNY     50  28  42 NW6       29.90F
CHARLES CITY * SUNNY     46  23  39 W5        29.91S
CLINTON *      SUNNY     48  26  42 VRB5      29.92F
DECORAH *      SUNNY     45  23  42 VRB5      29.88F
DUBUQUE        SUNNY     46  25  43 NW7       29.90F
MONTICELLO *   SUNNY     48  27  43 W5        29.90F
OELWEIN *      SUNNY     46  27  46 W6        29.90F
WATERLOO       SUNNY     48  25  40 W5        29.91F
$$

IAZ064-065-067-068-078-232100-
   EAST CENTRAL IOWA

CITY           SKY/WX    TMP DP  RH WIND       PRES   REMARKS
DAVENPORT      SUNNY     47  25  42 SW7       29.94F
IOWA CITY      SUNNY     52  27  38 W7        29.94F
MT. PLEASANT * SUNNY     51  27  40 W7        29.93F
MUSCATINE *    SUNNY     50  25  37 W6        29.94S
QUAD CITIES    SUNNY     49  25  39 W6        29.92F
$$

IAZ062-063-075>077-085>089-095>099-232100-
   SOUTHEAST IOWA

CITY           SKY/WX    TMP DP  RH WIND       PRES   REMARKS
BURLINGTON     SUNNY     50  29  44 MISG      29.93F
FAIRFIELD *    SUNNY     50  28  43 W9        29.93F
FORT MADISON * SUNNY     52  28  40 W6        29.95S
KEOKUK *       SUNNY     52  28  40 VRB5G12   29.94S
OSKALOOSA *      N/A     51  29  42 W7        29.94F
OTTUMWA        SUNNY     53  30  41 NW8       29.94S
WASHINGTON *   SUNNY     50  28  43 W9        29.94F
$$

ABBREVIATIONS USED IN REMARKS
   TC - TEMPERATURES IN CELSIUS
  WCI - WIND CHILL INDEX
   HX - HEAT INDEX
  VSB - VISIBILITY
$$





USA.gov is the U.S. government's official web portal to all federal, state and local government web resources and services.